Location: Fort Wayne
(41.1310°N, 85.1290°W)
Time: 17:56:41
(UTC-05:00)

OPAL - Visible Passes

Search period start: 26 February 2015 00:00
Search period end: 08 March 2015 00:00
Orbit: 744 x 796 km, 100.2° (Epoch: 26 February)

Date Brightness Start Highest point End Pass type
(mag) Time Alt. Az. Time Alt. Az. Time Alt. Az.
26 Feb 8.0 06:23:44 10° SSE 06:28:51 68° ENE 06:33:58 10° N visible
26 Feb 8.1 20:12:33 10° N 20:17:26 56° WNW 20:22:16 10° SSW visible
27 Feb 9.4 05:49:12 10° SE 05:53:42 32° ENE 05:58:15 10° N visible
27 Feb 7.4 19:37:11 10° NNE 19:42:09 66° ESE 19:47:04 10° S visible
27 Feb 10.2 21:17:33 10° NNW 21:20:34 16° WNW 21:23:24 10° W visible
28 Feb 10.4 05:15:44 10° E 05:18:42 16° ENE 05:21:51 10° NNE visible
28 Feb 8.2 19:02:21 10° NE 19:06:39 29° E 19:10:59 10° SSE visible
28 Feb 9.2 20:41:09 10° N 20:45:34 32° WNW 20:49:53 10° SW visible
01 Mar 8.4 06:16:50 10° SE 06:21:51 55° ENE 06:26:51 10° N visible
01 Mar 7.7 20:05:27 10° N 20:10:25 69° WNW 20:15:19 10° SSW visible
02 Mar 9.7 05:42:33 10° ESE 05:46:44 27° ENE 05:50:59 10° N visible
02 Mar 7.5 19:30:12 10° NNE 19:35:04 53° ESE 19:39:54 10° S visible
02 Mar 10.0 21:10:07 10° NNW 21:13:37 19° WNW 21:16:57 10° WSW visible
03 Mar 10.5 05:09:32 10° E 05:11:46 13° ENE 05:14:14 10° NNE visible
03 Mar 8.5 18:55:34 10° NE 18:59:30 24° E 19:03:31 10° SSE visible
03 Mar 8.8 20:33:57 10° N 20:38:34 39° WNW 20:43:06 10° SW visible
04 Mar 8.8 06:10:00 10° SE 06:14:50 45° ENE 06:19:41 10° N visible
04 Mar 7.4 19:58:21 10° NNE 20:03:21 85° WNW 20:08:18 10° SSW visible
04 Mar 10.6 21:40:05 10° NW 21:41:34 11° WNW 21:42:46 10° WNW visible
05 Mar 10.0 05:35:57 10° ESE 05:39:46 22° ENE 05:43:40 10° NNE visible
05 Mar 7.8 19:23:14 10° NNE 19:27:58 43° E 19:32:40 10° S visible
05 Mar 9.8 21:02:45 10° NNW 21:06:38 23° WNW 21:10:23 10° WSW visible
06 Mar 10.7 05:03:48 10° ENE 05:04:50 11° ENE 05:06:10 10° NE visible
06 Mar 8.4 20:26:46 10° N 20:31:33 47° WNW 20:36:15 10° SW visible
07 Mar 9.2 06:03:12 10° SE 06:07:50 37° ENE 06:12:30 10° N visible
07 Mar 7.3 19:51:19 10° NNE 19:56:17 79° ESE 20:01:15 10° SSW visible
07 Mar 10.4 21:32:09 10° NNW 21:34:37 13° WNW 21:36:52 10° W visible
